Location: ?????????
(55.6553°N, 38.9075°E)
Time: 22:27:47
(UTC+00:00)

USA 267 - Pass Details

Date: 18 October 2019
Orbit: 1101 x 1106 km, 123.0° (Epoch: 12 November)

Event Time Altitude Azimuth Distance (km) Brightness Sun altitude
Rises 02:15:47 0° 72° (ENE) 3,924 7.8 -15.4°
Reaches altitude 10° 02:18:15 10° 73° (ENE) 2,966 6.8 -15.0°
Maximum altitude 02:24:50 88° 165° (SSE) 1,110 3.3 -14.1°
Enters shadow 02:30:11 17° 253° (WSW) 2,498 4.5 -13.4°
